sat.trackr.live / text

‹ back to catalog

STARLINK-3902

NORAD 52487 · 2022-049AN

PAYLOAD ACTIVE UNKNOWN

§ Identity

Operator
Country
US
Launch date
2022-05-06
Launch site
AFETR
Launch vehicle
Mass (kg)
RCS (m²)

Purposes: comms

External: N2YO · Heavens-Above · Gunter

§ Orbital elements

Epoch: 2026-09-19T16:09:24.905088Z

Period
93.85 min
Inclination
53.1596°
Eccentricity
0.0001268
Mean motion
15.34387965 rev/d
Perigee alt
461.9 km
Apogee alt
463.6 km
Semi-major
6,840.9 km
B*
3.1290e-5
RAAN
247.2335°
Arg perigee
89.4058°
Mean anomaly
270.7090°
Rev number
24,306

§ Raw data

STARLINK-39021 52487U 22049AN  26262.67320492  .00000681  00000+0  31290-4 0  99972 52487  53.1596 247.2335 0001268  89.4058 270.7090 15.34387965243065

JSON: /api/v1/satellites/52487 · /tle

For live sub-satellite position, see the globe view (requires WebGL).

§ Visibility from observer

Set your observer location to see the next 7 days of passes ≥ 10°. The values pass through the URL so the page stays shareable.

No JS? Fill the form by hand. The geolocation button needs JavaScript.